Regional Weather Roundup
Issued by NWS

Home | Current Version | Previous Version | Graphics & Text | Print | Product List | Glossary On
Versions: 1 2 3 4 5 6 7 8 9 10 11 12 13 14 15 16 17 18 19 20 21 22 23 24 25 26 27 28 29 30 31 32 33 34 35 36 37 38 39 40 41 42 43 44 45 46 47 48 49 50
000
ASUS43 KTOP 231259
RWRKS

WEATHER ROUNDUP FOR KANSAS
NATIONAL WEATHER SERVICE GOODLAND KS
700 AM CST THU NOV 23 2017

NOTE:  "FAIR" INDICATES FEW OR NO CLOUDS BELOW 12,000 FEET WITH NO
SIGNIFICANT WEATHER AND/OR OBSTRUCTIONS TO VISIBILITY.

KSZ001>006-013>018-027>032-041>047-231400-
NORTHWEST KANSAS

CITY           SKY/WX    TMP DP  RH WIND       PRES   REMARKS
GOODLAND       CLOUDY    40  36  86 W10       30.15F WCI  33
HAYS           CLEAR     40  35  83 W10       30.08S WCI  33
HILL CITY      CLEAR     40  37  89 W9        30.10S
RUSSELL        CLEAR     34  32  92 SW6       30.06S
$$

KSZ061>065-074>080-084>089-231400-
SOUTHWEST KANSAS

CITY           SKY/WX    TMP DP  RH WIND       PRES   REMARKS
DODGE CITY     CLOUDY    42  33  70 NW9       30.12R
GARDEN CITY    CLOUDY    39  33  79 NW7       30.13S
GREAT BEND     CLEAR     39  34  82 W8        30.09R
LIBERAL        CLOUDY    43  34  70 NW12      30.15S
$$

KSZ066>073-081>083-090>101-231400-
SOUTHEAST KANSAS

CITY           SKY/WX    TMP DP  RH WIND       PRES   REMARKS
CHANUTE        CLEAR     34  23  64 S9        30.11S
COFFEYVILLE    CLEAR     30  25  81 E5        30.14R
HUTCHINSON     CLEAR     34  24  67 CALM      30.07R
MEDICINE LODGE   N/A     30  23  75 NW5       30.08S
NEWTON         CLEAR     34  22  61 SW7       30.08R
PARSONS        CLEAR     32  25  75 S6        30.13S
WICHITA INTL   PTCLDY    32  24  72 CALM      30.08R
WICHITA JABRA  CLEAR     33  23  66 S5        30.08R
WICHITA MCCONL CLEAR     34  20  58 CALM      30.09R
WINFIELD       CLEAR     33  24  69 S3        30.10S
$$

KSZ007>012-019>026-033>040-048>060-102>105-231400-
NORTHEAST KANSAS

CITY           SKY/WX    TMP DP  RH WIND       PRES   REMARKS
CONCORDIA      CLEAR     36  28  73 W10       30.05R WCI  28
EMPORIA        CLEAR     31  22  69 SW5       30.07S
LAWRENCE       CLEAR     29  23  78 CALM      30.07S
MANHATTAN      CLEAR     32  23  69 SW5       30.07S
OLATHE IND     CLEAR     34  22  61 SW12      30.07S WCI  25
OLATHE EXE     CLEAR     33  22  63 SW8       30.06S
SALINA         CLEAR     36  24  62 CALM      30.08R
TOPEKA BILLARD CLEAR     33  23  66 SW3       30.06F
TOPEKA FORBES  CLEAR     34  23  64 SW3       30.06R
$$




USA.gov is the U.S. government's official web portal to all federal, state and local government web resources and services.